Regional Weather Roundup
Issued by NWS

Home | Current Version | Previous Version | Text Only | Print | Product List | Glossary Off
Versions: 1 2 3 4 5 6 7 8 9 10 11 12 13 14 15 16 17 18 19 20 21 22 23 24 25 26 27 28 29 30 31 32 33 34 35 36 37 38 39 40 41 42 43 44 45 46 47 48 49 50

000
ASUS43 KIND 270909
RWRIN

WEATHER ROUNDUP FOR INDIANA
NATIONAL WEATHER SERVICE INDIANAPOLIS IN
500 AM EDT WED MAY 27 2015

NOTE: "FAIR" INDICATES FEW OR NO CLOUDS BELOW 12,000 FEET WITH NO
SIGNIFICANT WEATHER AND/OR OBSTRUCTIONS TO VISIBILITY.

* - STATION DOES NOT REPORT WEATHER SUCH AS PRECIPITATION OR FOG.

+ - STATION NOT QUALITY CONTROLLED BY THE NATIONAL WEATHER SERVICE.
    USE DATA WITH CAUTION...ESPECIALLY DEWPOINT AND RELATIVE
    HUMIDITY OBSERVATIONS.

INZ001>003-010>013-019-020-271000-
NORTHWEST INDIANA

CITY           SKY/WX    TMP DP  RH WIND       PRES   REMARKS
GARY /AIRPORT/ CLEAR     68  62  79 SW7       29.89R
KNOX *+        CLEAR     64  59  82 SW12G17   29.92R
LA PORTE +     PTCLDY    67  61  79 SW13      29.92R
MICHIGAN CITY+ CLEAR     64  57  77 SW10      29.91R
MONTICELLO +   CLEAR     65  62  90 S10       29.95R
RENSSELAER +   PTCLDY    64  63  94 SW14G20   29.94R
VALPARAISO     CLEAR     66  59  78 SW14      29.92R

$$

LMZ046-743>745-271000-
SOUTHERN LAKE MICHIGAN

STATION/POSITION TIME  TEMP    WIND        PRES    WAVE
                       AIR SEA DIR/SP/G            HT
                 (UTC) (F)     (DEG/KT/KT) (MB)    (FT)
BURNS HARBOR     0900   68     210/ 17/ 22 1012.5R
MICHIGAN CITY    0900   68     180/ 17/ 21   N/A
5NW MICH CITY    0900   63 52  220/ 14/ 17   N/A     2

$$

INZ004-005-014>016-021>024-271000-
NORTH CENTRAL INDIANA

CITY           SKY/WX    TMP DP  RH WIND       PRES   REMARKS
GOSHEN         MOCLDY    66  59  78 SW15      29.92S
LOGANSPORT +   CLEAR     64  57  77 SW14      29.97R
PERU/GRISSOM   CLEAR     66  60  83 SW15G21   29.96R
ROCHESTER +    CLEAR     68  61  77 SW9G16    29.95R
SOUTH BEND     PTCLDY    67  59  75 SW13      29.91R
WARSAW +       MOCLDY    66  59  77 SW8       29.94R

$$

INZ006>009-017-018-025>027-271000-
NORTHEAST INDIANA

CITY           SKY/WX    TMP DP  RH WIND       PRES   REMARKS
ANGOLA *+      CLEAR     63  54  72 S8        29.94S
AUBURN +       CLEAR     64  59  82 S5        29.97R
FORT WAYNE     CLEAR     63  60  90 SW9       29.97S
HUNTINGTON +   CLEAR     64  60  84 SW8       29.97R

$$

INZ028-029-035-036-043>045-051>053-271000-
WEST CENTRAL INDIANA

CITY           SKY/WX    TMP DP  RH WIND       PRES   REMARKS
CRAWFORDSVL +  CLEAR     62  56  81 S8        30.00R
GREENCASTLE +  CLEAR     63  57  82 S5        30.03R
LAFAYETTE      CLEAR     65  60  84 SW7       29.96R
TERRE HAUTE    CLEAR     65  62  90 SW9       30.02R

$$

INZ030>032-037>040-046>048-054>057-064-065-271000-
CENTRAL INDIANA

CITY           SKY/WX    TMP DP  RH WIND       PRES   REMARKS
CP ATTERBURY + CLEAR     59  57  94 CALM      30.04R FOG
FISHERS *+     CLEAR     63  61  94 S8        30.02R
FRANKFORT +    CLEAR     64  61  88 S7        30.01R
GREENWOOD *+   CLEAR     63  57  82 S5        30.03R
INDIANAPOLIS   CLEAR     64  59  83 S9        30.00R
-EAGLE CREEK   CLEAR     64  60  87 SW6       30.01R
KOKOMO *+      CLEAR     66  59  77 SW16      29.98R
MARION +       CLEAR     63  58  84 SW10      30.00R
MT COMFORT *+  CLEAR     63 N/A N/A S8        30.03R
SHELBYVILLE    CLEAR     65  60  84 S8        30.02R
ZIONSVILLE +   CLEAR     64  59  82 S8        30.01R

$$

INZ033-034-041-042-049-050-058-059-271000-
EAST CENTRAL INDIANA

CITY           SKY/WX    TMP DP  RH WIND       PRES   REMARKS
MUNCIE         CLEAR     65  60  84 SW9       30.00S

$$

INZ060-061-067>069-081>083-085>088-271000-
SOUTHWEST INDIANA

CITY           SKY/WX    TMP DP  RH WIND       PRES   REMARKS
EVANSVILLE     CLEAR     64  60  87 CALM      30.05R
HUNTINGBURG *+ PTCLDY    63  57  82 S7        30.06R
WASHINGTON +   CLEAR     64  60  87 SW5       30.04R

$$

INZ062-063-066-070>080-084-089>092-271000-
SOUTH CENTRAL AND SOUTHEAST INDIANA

CITY           SKY/WX    TMP DP  RH WIND       PRES   REMARKS
BLOOMINGTON    CLEAR     63  61  93 SW6       30.04R
MADISON *+     CLEAR     64  63  94 S6        30.08S
NORTH VERNON + CLEAR     64  64 100 S6        30.06R
SEYMOUR +      CLEAR     66  63  88 S8        30.05R

$$



USA.gov is the U.S. government's official web portal to all federal, state and local government web resources and services.